Change the Weather History Date:

Friday, September 14, 2012

  Actual Average Record
Temperature  
Mean Temperature 65 °F -  
Max Temperature 75 °F 74 °F 87 °F (1981)
Min Temperature 57 °F 55 °F 40 °F (1975)
Growing Degree Days 15 (Base 50)    
Moisture  
Dew Point 61 °F    
Average Humidity 81    
Maximum Humidity 94    
Minimum Humidity 70    
Precipitation  
Precipitation 0.00 in - - ()
Sea Level Pressure  
Sea Level Pressure 30.20 in    
Wind  
Wind Speed 5 mph (SSW)    
Max Wind Speed 13 mph    
Max Gust Speed -    
Visibility 10 miles    
Events      
Averages and records for this station are not official NWS values.
T = Trace of Precipitation, MM = Missing Value Source: NWS Daily Summary

Daily Weather History Graph

Daily Weather History Graph

Search for Another Location

Airport or City:

Trip Planner

Search our weather history database for the weather conditions in past years. The results will help you decide how hot, cold, wet, or windy it might be!

Date:

Astronomy

Sep. 14, 2012 Rise Set
Actual Time 6:28 AM EDT 6:58 PM EDT
Civil Twilight 6:00 AM EDT 7:26 PM EDT
Nautical Twilight 5:27 AM EDT 7:58 PM EDT
Astronomical Twilight 4:53 AM EDT 8:32 PM EDT
Moon 4:48 AM EDT (9/14) 5:53 PM EDT (9/14)
Length of Visible Light 13h 25m
Length of Day
12h 30m
Waning Crescent, 3% of the Moon is Illuminated
Sep 14
Waning Crescent
Sep 15
New
Sep 22
First Quarter
Sep 29
Full
Oct 8
Last Quarter

Hourly Weather History & Observations

Time (EDT) Temp. Dew Point Humidity Pressure Visibility Wind Dir Wind Speed Gust Speed Precip Events Conditions
12:56 AM 66.0 °F 61.0 °F 84% 30.29 in 10.0 mi West 3.5 mph - N/A   Clear
1:56 AM 62.1 °F 57.9 °F 86% 30.28 in 10.0 mi Calm Calm - N/A   Clear
2:56 AM 66.0 °F 62.1 °F 87% 30.27 in 10.0 mi SW 6.9 mph - N/A   Clear
3:56 AM 66.9 °F 61.0 °F 81% 30.26 in 10.0 mi SW 8.1 mph - N/A   Clear
4:56 AM 60.1 °F 57.0 °F 90% 30.26 in 10.0 mi Calm Calm - N/A   Clear
5:56 AM 57.9 °F 55.9 °F 93% 30.26 in 10.0 mi Calm Calm - N/A   Partly Cloudy
6:25 AM 57.2 °F 55.4 °F 94% 30.25 in 9.0 mi Calm Calm - N/A   Mostly Cloudy
6:56 AM 57.9 °F 55.9 °F 93% 30.25 in 8.0 mi Calm Calm - N/A   Scattered Clouds
7:56 AM 66.0 °F 61.0 °F 84% 30.25 in 9.0 mi Calm Calm - N/A   Clear
8:56 AM 70.0 °F 64.9 °F 84% 30.24 in 10.0 mi SW 4.6 mph - N/A   Clear
9:56 AM 72.0 °F 64.0 °F 76% 30.23 in 10.0 mi SSW 9.2 mph - N/A   Clear
10:56 AM 72.0 °F 64.0 °F 76% 30.23 in 10.0 mi SSW 9.2 mph - N/A   Clear
11:56 AM 73.0 °F 63.0 °F 71% 30.22 in 10.0 mi SSW 8.1 mph - N/A   Clear
12:56 PM 73.0 °F 64.0 °F 73% 30.20 in 10.0 mi SSW 8.1 mph - N/A   Clear
1:56 PM 73.9 °F 64.0 °F 71% 30.18 in 10.0 mi South 6.9 mph - N/A   Clear
2:56 PM 73.9 °F 64.0 °F 71% 30.17 in 10.0 mi South 11.5 mph - N/A   Clear
3:56 PM 73.0 °F 64.0 °F 73% 30.15 in 10.0 mi South 12.7 mph - N/A   Clear
4:56 PM 73.0 °F 63.0 °F 71% 30.15 in 10.0 mi South 12.7 mph - N/A   Partly Cloudy
5:56 PM 71.1 °F 61.0 °F 70% 30.14 in 10.0 mi South 10.4 mph - N/A   Clear
6:56 PM 69.1 °F 61.0 °F 75% 30.14 in 10.0 mi SSW 10.4 mph - N/A   Clear
7:56 PM 69.1 °F 61.0 °F 75% 30.13 in 10.0 mi SSW 11.5 mph - N/A   Clear
8:56 PM 68.0 °F 63.0 °F 84% 30.12 in 10.0 mi SSW 9.2 mph - N/A   Clear
9:56 PM 66.9 °F 63.0 °F 87% 30.11 in 10.0 mi SSW 8.1 mph - N/A   Clear
10:56 PM 68.0 °F 62.1 °F 81% 30.11 in 10.0 mi SSW 8.1 mph - N/A   Clear
11:56 PM 64.9 °F 63.0 °F 93% 30.10 in 10.0 mi Calm Calm - N/A   Clear